Time,TemperatureF,DewpointF,PressureIn,WindDirection,WindDirectionDegrees,WindSpeedMPH,WindSpeedGustMPH,Humidity,HourlyPrecipIn,Conditions,Clouds,dailyrainin,SoftwareType,DateUTC
2013-03-23 00:00:00,37.2,28.0,29.96,West,270,0.0,0.0,69,0.00,,---,0.00,VWS V14.00,2013-03-23 04:00:00,
2013-03-23 00:05:00,36.8,27.6,29.96,West,270,0.0,0.0,69,0.00,,---,0.00,VWS V14.00,2013-03-23 04:05:00,
2013-03-23 00:10:00,36.6,27.8,29.96,West,270,0.0,0.0,70,0.00,,---,0.00,VWS V14.00,2013-03-23 04:10:00,
2013-03-23 00:15:00,36.8,28.3,29.96,West,270,0.0,0.0,71,0.00,,---,0.00,VWS V14.00,2013-03-23 04:15:00,
2013-03-23 00:20:00,37.0,28.5,29.96,West,270,0.0,0.0,71,0.00,,---,0.00,VWS V14.00,2013-03-23 04:20:00,
2013-03-23 00:25:00,37.2,28.7,29.96,West,270,0.0,0.0,71,0.00,,---,0.00,VWS V14.00,2013-03-23 04:25:00,
2013-03-23 00:30:00,37.4,29.2,29.96,West,270,0.0,0.0,72,0.00,,---,0.00,VWS V14.00,2013-03-23 04:30:00,
2013-03-23 00:35:00,37.5,29.0,29.96,West,270,0.0,0.0,71,0.00,,---,0.00,VWS V14.00,2013-03-23 04:35:00,
2013-03-23 00:40:00,37.7,29.5,29.96,West,270,0.0,0.0,72,0.00,,---,0.00,VWS V14.00,2013-03-23 04:40:00,
2013-03-23 00:45:00,37.9,29.7,29.96,West,270,0.0,0.0,72,0.00,,---,0.00,VWS V14.00,2013-03-23 04:45:00,
2013-03-23 00:50:00,38.1,29.9,29.96,West,270,0.0,0.0,72,0.00,,---,0.00,VWS V14.00,2013-03-23 04:50:00,
2013-03-23 00:55:00,38.1,29.9,29.97,West,270,0.0,0.0,72,0.00,,---,0.00,VWS V14.00,2013-03-23 04:55:00,
2013-03-23 01:00:00,38.3,30.1,29.97,West,270,0.0,0.0,72,0.00,,---,0.00,VWS V14.00,2013-03-23 05:00:00,
2013-03-23 01:05:00,38.4,30.2,29.96,West,270,0.0,0.0,72,0.00,,---,0.00,VWS V14.00,2013-03-23 05:05:00,
2013-03-23 01:10:00,38.4,30.2,29.96,West,270,0.0,0.0,72,0.00,,---,0.00,VWS V14.00,2013-03-23 05:10:00,
2013-03-23 01:15:00,38.4,30.2,29.95,West,270,0.0,0.0,72,0.00,,---,0.00,VWS V14.00,2013-03-23 05:15:00,
2013-03-23 01:21:00,38.1,29.9,29.94,West,270,0.0,0.0,72,0.00,,---,0.00,VWS V14.00,2013-03-23 05:21:00,
2013-03-23 01:26:00,37.9,29.4,29.95,West,270,0.0,0.0,71,0.00,,---,0.00,VWS V14.00,2013-03-23 05:26:00,
2013-03-23 01:31:00,37.4,29.2,29.96,West,270,0.0,0.0,72,0.00,,---,0.00,VWS V14.00,2013-03-23 05:31:00,
2013-03-23 01:36:00,37.0,29.2,29.96,West,270,0.0,0.0,73,0.00,,---,0.00,VWS V14.00,2013-03-23 05:36:00,
2013-03-23 01:41:00,36.6,28.8,29.95,West,270,0.0,0.0,73,0.00,,---,0.00,VWS V14.00,2013-03-23 05:41:00,
2013-03-23 01:46:00,36.3,28.8,29.95,West,270,0.0,0.0,74,0.00,,---,0.00,VWS V14.00,2013-03-23 05:46:00,
2013-03-23 01:51:00,36.3,28.8,29.95,West,270,0.0,0.0,74,0.00,,---,0.00,VWS V14.00,2013-03-23 05:51:00,
2013-03-23 01:56:00,36.1,28.6,29.95,West,270,0.0,0.0,74,0.00,,---,0.00,VWS V14.00,2013-03-23 05:56:00,
2013-03-23 02:01:00,35.9,28.4,29.95,West,270,0.0,0.0,74,0.00,,---,0.00,VWS V14.00,2013-03-23 06:01:00,
2013-03-23 02:06:00,35.7,28.6,29.95,West,270,0.0,0.0,75,0.00,,---,0.00,VWS V14.00,2013-03-23 06:06:00,
2013-03-23 02:11:00,35.7,28.6,29.94,West,270,0.0,0.0,75,0.00,,---,0.00,VWS V14.00,2013-03-23 06:11:00,
2013-03-23 02:16:00,35.7,28.6,29.94,West,270,0.0,0.0,75,0.00,,---,0.00,VWS V14.00,2013-03-23 06:16:00,
2013-03-23 02:21:00,35.4,28.3,29.94,West,270,0.0,0.0,75,0.00,,---,0.00,VWS V14.00,2013-03-23 06:21:00,
2013-03-23 02:26:00,35.4,28.3,29.93,West,270,0.0,0.0,75,0.00,,---,0.00,VWS V14.00,2013-03-23 06:26:00,
2013-03-23 02:31:00,35.4,28.6,29.93,West,270,0.0,0.0,76,0.00,,---,0.00,VWS V14.00,2013-03-23 06:31:00,
2013-03-23 02:36:00,35.4,28.6,29.94,West,270,0.0,0.4,76,0.00,,---,0.00,VWS V14.00,2013-03-23 06:36:00,
2013-03-23 02:41:00,35.4,28.9,29.94,West,270,0.0,0.0,77,0.00,,---,0.00,VWS V14.00,2013-03-23 06:41:00,
2013-03-23 02:47:00,35.4,28.9,29.95,West,270,0.0,0.0,77,0.00,,---,0.00,VWS V14.00,2013-03-23 06:47:00,
2013-03-23 02:52:00,35.4,28.9,29.94,West,270,0.0,0.0,77,0.00,,---,0.00,VWS V14.00,2013-03-23 06:52:00,
2013-03-23 02:57:00,35.6,29.1,29.94,West,270,0.0,0.0,77,0.00,,---,0.00,VWS V14.00,2013-03-23 06:57:00,
2013-03-23 03:02:00,35.7,29.2,29.94,West,270,0.0,0.0,77,0.00,,---,0.00,VWS V14.00,2013-03-23 07:02:00,
2013-03-23 03:07:00,35.7,29.2,29.94,West,270,0.0,0.0,77,0.00,,---,0.00,VWS V14.00,2013-03-23 07:07:00,
2013-03-23 03:12:00,35.9,29.4,29.94,West,270,0.0,0.0,77,0.00,,---,0.00,VWS V14.00,2013-03-23 07:12:00,
2013-03-23 03:17:00,35.9,29.4,29.94,West,270,0.0,0.0,77,0.00,,---,0.00,VWS V14.00,2013-03-23 07:17:00,
2013-03-23 03:22:00,36.1,29.6,29.94,West,270,0.0,0.0,77,0.00,,---,0.00,VWS V14.00,2013-03-23 07:22:00,
2013-03-23 03:27:00,36.1,29.9,29.93,West,270,0.0,0.0,78,0.00,,---,0.00,VWS V14.00,2013-03-23 07:27:00,
2013-03-23 03:32:00,36.3,30.1,29.93,West,270,0.0,0.0,78,0.00,,---,0.00,VWS V14.00,2013-03-23 07:32:00,
2013-03-23 03:37:00,36.3,30.1,29.94,West,270,0.0,0.0,78,0.00,,---,0.00,VWS V14.00,2013-03-23 07:37:00,
2013-03-23 03:42:00,36.5,30.3,29.93,West,270,0.0,0.0,78,0.00,,---,0.00,VWS V14.00,2013-03-23 07:42:00,
2013-03-23 03:47:00,36.6,30.4,29.94,West,270,0.0,0.0,78,0.00,,---,0.00,VWS V14.00,2013-03-23 07:47:00,
2013-03-23 03:52:00,36.6,30.4,29.93,West,270,0.0,0.0,78,0.00,,---,0.00,VWS V14.00,2013-03-23 07:52:00,
2013-03-23 03:57:00,37.0,30.8,29.92,West,270,0.0,0.0,78,0.00,,---,0.00,VWS V14.00,2013-03-23 07:57:00,
2013-03-23 04:02:00,37.0,30.8,29.92,West,270,0.0,0.0,78,0.00,,---,0.00,VWS V14.00,2013-03-23 08:02:00,
2013-03-23 04:07:00,37.2,31.0,29.92,West,270,0.0,0.0,78,0.00,,---,0.00,VWS V14.00,2013-03-23 08:07:00,
2013-03-23 04:12:00,37.2,31.0,29.92,West,270,0.0,0.0,78,0.00,,---,0.00,VWS V14.00,2013-03-23 08:12:00,
2013-03-23 04:17:00,37.2,31.0,29.92,West,270,0.0,0.0,78,0.00,,---,0.00,VWS V14.00,2013-03-23 08:17:00,
2013-03-23 04:22:00,37.2,31.0,29.92,West,270,0.0,0.0,78,0.00,,---,0.00,VWS V14.00,2013-03-23 08:22:00,
2013-03-23 04:27:00,37.2,31.0,29.92,West,270,0.0,0.0,78,0.00,,---,0.00,VWS V14.00,2013-03-23 08:27:00,
2013-03-23 04:32:00,37.4,31.2,29.91,West,270,0.0,0.0,78,0.00,,---,0.00,VWS V14.00,2013-03-23 08:32:00,
2013-03-23 04:37:00,37.5,31.0,29.91,West,270,0.0,0.0,77,0.00,,---,0.00,VWS V14.00,2013-03-23 08:37:00,
2013-03-23 04:42:00,37.5,31.3,29.92,West,270,0.0,0.0,78,0.00,,---,0.00,VWS V14.00,2013-03-23 08:42:00,
2013-03-23 04:47:00,37.5,31.3,29.92,West,270,0.0,0.0,78,0.00,,---,0.00,VWS V14.00,2013-03-23 08:47:00,
2013-03-23 04:52:00,37.5,31.3,29.91,West,270,0.0,0.0,78,0.00,,---,0.00,VWS V14.00,2013-03-23 08:52:00,
2013-03-23 04:57:00,37.7,31.5,29.91,West,270,0.0,0.0,78,0.00,,---,0.00,VWS V14.00,2013-03-23 08:57:00,
2013-03-23 05:03:00,37.9,31.7,29.91,West,270,0.0,0.0,78,0.00,,---,0.00,VWS V14.00,2013-03-23 09:03:00,
2013-03-23 05:07:00,37.9,31.7,29.92,West,270,0.0,0.0,78,0.00,,---,0.00,VWS V14.00,2013-03-23 09:07:00,
2013-03-23 05:13:00,37.9,31.7,29.92,West,270,0.0,0.0,78,0.00,,---,0.00,VWS V14.00,2013-03-23 09:13:00,
2013-03-23 05:18:00,38.1,32.2,29.92,West,270,0.0,0.0,79,0.00,,---,0.00,VWS V14.00,2013-03-23 09:18:00,
2013-03-23 05:23:00,37.9,32.0,29.91,West,270,0.0,0.0,79,0.00,,---,0.00,VWS V14.00,2013-03-23 09:23:00,
2013-03-23 05:28:00,37.9,32.0,29.90,West,270,0.0,0.0,79,0.00,,---,0.00,VWS V14.00,2013-03-23 09:28:00,
2013-03-23 05:33:00,37.9,32.0,29.91,West,270,0.0,0.0,79,0.00,,---,0.00,VWS V14.00,2013-03-23 09:33:00,
2013-03-23 05:38:00,37.9,32.0,29.91,West,270,0.0,0.0,79,0.00,,---,0.00,VWS V14.00,2013-03-23 09:38:00,
2013-03-23 05:43:00,37.7,31.8,29.91,West,270,0.0,0.0,79,0.00,,---,0.00,VWS V14.00,2013-03-23 09:43:00,
2013-03-23 05:48:00,37.9,32.3,29.91,West,270,0.0,0.0,80,0.00,,---,0.00,VWS V14.00,2013-03-23 09:48:00,
2013-03-23 05:53:00,37.9,32.3,29.91,West,270,0.0,0.0,80,0.00,,---,0.00,VWS V14.00,2013-03-23 09:53:00,
2013-03-23 05:58:00,37.9,32.6,29.91,West,270,0.0,0.0,81,0.00,,---,0.00,VWS V14.00,2013-03-23 09:58:00,
2013-03-23 06:03:00,38.1,32.8,29.91,West,270,0.0,0.0,81,0.00,,---,0.00,VWS V14.00,2013-03-23 10:03:00,
2013-03-23 06:08:00,38.1,32.8,29.91,West,270,0.4,0.4,81,0.00,,---,0.00,VWS V14.00,2013-03-23 10:08:00,
2013-03-23 06:13:00,38.1,32.8,29.91,West,270,0.0,0.0,81,0.00,,---,0.00,VWS V14.00,2013-03-23 10:13:00,
2013-03-23 06:18:00,38.3,33.0,29.91,West,270,0.0,0.0,81,0.00,,---,0.00,VWS V14.00,2013-03-23 10:18:00,
2013-03-23 06:23:00,38.3,33.0,29.92,West,270,0.0,0.0,81,0.00,,---,0.00,VWS V14.00,2013-03-23 10:23:00,
2013-03-23 06:28:00,38.3,33.0,29.92,West,270,0.0,0.0,81,0.00,,---,0.00,VWS V14.00,2013-03-23 10:28:00,
2013-03-23 06:33:00,38.4,32.8,29.92,West,270,0.0,0.0,80,0.00,,---,0.00,VWS V14.00,2013-03-23 10:33:00,
2013-03-23 06:38:00,38.4,32.8,29.93,West,270,0.0,0.0,80,0.00,,---,0.00,VWS V14.00,2013-03-23 10:38:00,
2013-03-23 06:43:00,38.4,32.8,29.93,West,270,0.0,0.0,80,0.00,,---,0.00,VWS V14.00,2013-03-23 10:43:00,
2013-03-23 06:48:00,38.4,32.8,29.93,West,270,0.0,0.0,80,0.00,,---,0.00,VWS V14.00,2013-03-23 10:48:00,
2013-03-23 06:53:00,38.4,32.8,29.93,West,270,0.0,0.0,80,0.00,,---,0.00,VWS V14.00,2013-03-23 10:53:00,
2013-03-23 06:58:00,38.6,33.0,29.93,West,270,0.0,0.0,80,0.00,,---,0.00,VWS V14.00,2013-03-23 10:58:00,
2013-03-23 07:03:00,38.8,33.5,29.94,West,270,0.0,0.0,81,0.00,,---,0.00,VWS V14.00,2013-03-23 11:03:00,
2013-03-23 07:08:00,38.8,33.5,29.95,West,270,0.0,0.0,81,0.00,,---,0.00,VWS V14.00,2013-03-23 11:08:00,
2013-03-23 07:13:00,38.8,33.2,29.95,West,270,0.0,0.0,80,0.00,,---,0.00,VWS V14.00,2013-03-23 11:13:00,
2013-03-23 07:18:00,38.8,33.2,29.95,West,270,0.0,0.0,80,0.00,,---,0.00,VWS V14.00,2013-03-23 11:18:00,
2013-03-23 07:23:00,39.0,33.4,29.95,West,270,0.0,0.0,80,0.00,,---,0.00,VWS V14.00,2013-03-23 11:23:00,
2013-03-23 07:28:00,39.0,33.7,29.96,West,270,0.0,0.0,81,0.00,,---,0.00,VWS V14.00,2013-03-23 11:28:00,
2013-03-23 07:33:00,38.8,33.5,29.95,West,270,0.0,0.0,81,0.00,,---,0.00,VWS V14.00,2013-03-23 11:33:00,
2013-03-23 07:38:00,38.8,33.5,29.95,West,270,0.0,0.0,81,0.00,,---,0.00,VWS V14.00,2013-03-23 11:38:00,
2013-03-23 07:43:00,38.4,33.4,29.95,West,270,0.0,0.0,82,0.00,,---,0.00,VWS V14.00,2013-03-23 11:43:00,
2013-03-23 07:48:00,38.4,33.4,29.94,West,270,0.0,0.0,82,0.00,,---,0.00,VWS V14.00,2013-03-23 11:48:00,
2013-03-23 07:53:00,38.3,33.3,29.93,West,270,0.0,0.0,82,0.00,,---,0.00,VWS V14.00,2013-03-23 11:53:00,
2013-03-23 07:58:00,38.1,33.4,29.92,West,270,0.0,0.0,83,0.00,,---,0.00,VWS V14.00,2013-03-23 11:58:00,
2013-03-23 08:03:00,38.1,33.4,29.93,West,270,0.0,0.0,83,0.00,,---,0.00,VWS V14.00,2013-03-23 12:03:00,
2013-03-23 08:08:00,37.9,33.5,29.93,West,270,0.0,0.0,84,0.00,,---,0.00,VWS V14.00,2013-03-23 12:08:00,
2013-03-23 08:13:00,37.9,33.5,29.93,West,270,0.0,0.0,84,0.00,,---,0.00,VWS V14.00,2013-03-23 12:13:00,
2013-03-23 08:18:00,37.7,33.3,29.94,West,270,0.0,0.0,84,0.00,,---,0.00,VWS V14.00,2013-03-23 12:18:00,
2013-03-23 08:23:00,37.9,33.8,29.94,West,270,0.0,0.0,85,0.00,,---,0.00,VWS V14.00,2013-03-23 12:23:00,
2013-03-23 08:28:00,37.9,34.1,29.95,West,270,0.0,0.0,86,0.00,,---,0.00,VWS V14.00,2013-03-23 12:28:00,
2013-03-23 08:33:00,37.9,34.1,29.95,West,270,0.0,0.0,86,0.00,,---,0.00,VWS V14.00,2013-03-23 12:33:00,
2013-03-23 08:38:00,38.1,34.6,29.95,West,270,0.0,0.0,87,0.00,,---,0.00,VWS V14.00,2013-03-23 12:38:00,
2013-03-23 08:43:00,38.3,34.8,29.95,West,270,0.0,0.0,87,0.00,,---,0.00,VWS V14.00,2013-03-23 12:43:00,
2013-03-23 08:48:00,38.4,34.9,29.95,West,270,0.0,0.0,87,0.00,,---,0.00,VWS V14.00,2013-03-23 12:48:00,
2013-03-23 08:54:00,38.6,35.1,29.96,West,270,0.0,0.0,87,0.00,,---,0.00,VWS V14.00,2013-03-23 12:54:00,
2013-03-23 08:59:00,38.8,35.3,29.95,West,270,0.0,0.0,87,0.00,,---,0.00,VWS V14.00,2013-03-23 12:59:00,
2013-03-23 09:04:00,38.8,35.3,29.96,West,270,0.0,0.0,87,0.00,,---,0.00,VWS V14.00,2013-03-23 13:04:00,
2013-03-23 09:09:00,39.0,35.5,29.96,West,270,0.0,0.0,87,0.00,,---,0.00,VWS V14.00,2013-03-23 13:09:00,
2013-03-23 09:14:00,39.0,35.5,29.96,West,270,0.0,0.0,87,0.00,,---,0.00,VWS V14.00,2013-03-23 13:14:00,
2013-03-23 09:19:00,39.3,35.8,29.96,West,270,0.0,0.0,87,0.00,,---,0.00,VWS V14.00,2013-03-23 13:19:00,
2013-03-23 09:24:00,39.7,36.2,29.96,West,270,0.0,0.0,87,0.00,,---,0.00,VWS V14.00,2013-03-23 13:24:00,
2013-03-23 09:29:00,39.9,36.1,29.96,West,270,0.0,0.0,86,0.00,,---,0.00,VWS V14.00,2013-03-23 13:29:00,
2013-03-23 09:34:00,39.9,36.1,29.96,West,270,0.0,0.0,86,0.00,,---,0.00,VWS V14.00,2013-03-23 13:34:00,
2013-03-23 09:39:00,39.9,35.8,29.96,West,270,0.0,0.6,85,0.00,,---,0.00,VWS V14.00,2013-03-23 13:39:00,
2013-03-23 09:44:00,39.9,35.8,29.96,West,270,0.0,0.0,85,0.00,,---,0.00,VWS V14.00,2013-03-23 13:44:00,
2013-03-23 09:49:00,40.1,36.0,29.96,West,270,0.0,0.0,85,0.00,,---,0.00,VWS V14.00,2013-03-23 13:49:00,
2013-03-23 09:54:00,40.2,36.1,29.96,West,270,0.0,0.0,85,0.00,,---,0.00,VWS V14.00,2013-03-23 13:54:00,
2013-03-23 09:59:00,40.2,36.1,29.96,West,270,0.0,0.0,85,0.00,,---,0.00,VWS V14.00,2013-03-23 13:59:00,
2013-03-23 10:04:00,40.2,36.1,29.96,West,270,0.0,0.0,85,0.00,,---,0.00,VWS V14.00,2013-03-23 14:04:00,
2013-03-23 10:09:00,40.6,36.2,29.97,West,270,0.0,0.0,84,0.00,,---,0.00,VWS V14.00,2013-03-23 14:09:00,
2013-03-23 10:14:00,40.6,36.5,29.97,West,270,0.0,0.0,85,0.00,,---,0.00,VWS V14.00,2013-03-23 14:14:00,
2013-03-23 10:19:00,40.6,36.5,29.97,West,270,0.0,0.0,85,0.00,,---,0.00,VWS V14.00,2013-03-23 14:19:00,
2013-03-23 10:24:00,40.8,36.7,29.97,West,270,0.0,0.0,85,0.00,,---,0.00,VWS V14.00,2013-03-23 14:24:00,
2013-03-23 10:29:00,40.8,36.7,29.97,West,270,0.0,0.0,85,0.00,,---,0.00,VWS V14.00,2013-03-23 14:29:00,
2013-03-23 10:34:00,41.1,36.6,29.96,West,270,0.8,0.8,84,0.00,,---,0.00,VWS V14.00,2013-03-23 14:34:00,
2013-03-23 10:39:00,41.1,36.0,29.95,West,270,0.0,2.0,82,0.00,,---,0.00,VWS V14.00,2013-03-23 14:39:00,
2013-03-23 10:44:00,41.1,36.3,29.96,West,270,0.0,0.0,83,0.00,,---,0.00,VWS V14.00,2013-03-23 14:44:00,
2013-03-23 10:49:00,41.5,37.0,29.95,West,270,0.0,0.0,84,0.00,,---,0.00,VWS V14.00,2013-03-23 14:49:00,
2013-03-23 10:54:00,41.7,36.9,29.95,West,270,0.0,0.0,83,0.00,,---,0.00,VWS V14.00,2013-03-23 14:54:00,
2013-03-23 10:59:00,41.9,37.1,29.95,West,270,0.0,2.0,83,0.00,,---,0.00,VWS V14.00,2013-03-23 14:59:00,
2013-03-23 11:04:00,41.7,36.9,29.95,West,270,0.0,0.0,83,0.00,,---,0.00,VWS V14.00,2013-03-23 15:04:00,
2013-03-23 11:09:00,42.0,36.9,29.95,West,270,0.0,0.0,82,0.00,,---,0.00,VWS V14.00,2013-03-23 15:09:00,
2013-03-23 11:14:00,42.2,37.1,29.95,West,270,0.0,0.0,82,0.00,,---,0.00,VWS V14.00,2013-03-23 15:14:00,
2013-03-23 11:19:00,42.4,37.3,29.95,West,270,0.0,0.0,82,0.00,,---,0.00,VWS V14.00,2013-03-23 15:19:00,
2013-03-23 11:24:00,42.6,37.5,29.95,West,270,0.0,0.0,82,0.00,,---,0.00,VWS V14.00,2013-03-23 15:24:00,
2013-03-23 11:29:00,42.9,37.8,29.95,West,270,0.0,0.0,82,0.00,,---,0.00,VWS V14.00,2013-03-23 15:29:00,
2013-03-23 11:34:00,43.1,38.0,29.95,West,270,1.3,1.3,82,0.00,,---,0.00,VWS V14.00,2013-03-23 15:34:00,
2013-03-23 11:39:00,43.3,37.9,29.95,West,270,0.0,1.3,81,0.00,,---,0.00,VWS V14.00,2013-03-23 15:39:00,
2013-03-23 11:44:00,43.5,37.8,29.95,West,270,0.0,0.0,80,0.00,,---,0.00,VWS V14.00,2013-03-23 15:44:00,
2013-03-23 11:49:00,43.5,37.8,29.95,West,270,0.4,0.4,80,0.00,,---,0.00,VWS V14.00,2013-03-23 15:49:00,
2013-03-23 11:54:00,43.8,38.0,29.95,West,270,0.0,0.0,80,0.00,,---,0.00,VWS V14.00,2013-03-23 15:54:00,
2013-03-23 11:59:00,44.2,38.4,29.95,West,270,0.0,0.0,80,0.00,,---,0.00,VWS V14.00,2013-03-23 15:59:00,
2013-03-23 12:04:00,44.4,38.3,29.95,West,270,0.0,0.0,79,0.00,,---,0.00,VWS V14.00,2013-03-23 16:04:00,
2013-03-23 12:09:00,44.7,38.6,29.95,West,270,0.0,0.0,79,0.00,,---,0.00,VWS V14.00,2013-03-23 16:09:00,
2013-03-23 12:14:00,45.5,39.4,29.95,West,270,0.0,0.0,79,0.00,,---,0.00,VWS V14.00,2013-03-23 16:14:00,
2013-03-23 12:19:00,45.8,39.3,29.95,West,270,0.0,0.0,78,0.00,,---,0.00,VWS V14.00,2013-03-23 16:19:00,
2013-03-23 12:24:00,46.2,39.7,29.95,West,270,0.0,0.0,78,0.00,,---,0.00,VWS V14.00,2013-03-23 16:24:00,
2013-03-23 12:30:00,46.9,40.4,29.95,West,270,1.3,1.3,78,0.00,,---,0.00,VWS V14.00,2013-03-23 16:30:00,
2013-03-23 12:35:00,47.4,40.6,29.95,West,270,0.0,1.3,77,0.00,,---,0.00,VWS V14.00,2013-03-23 16:35:00,
2013-03-23 12:40:00,47.8,40.3,29.95,West,270,0.0,1.3,75,0.00,,---,0.00,VWS V14.00,2013-03-23 16:40:00,
2013-03-23 12:45:00,48.2,40.7,29.94,West,270,0.0,0.0,75,0.00,,---,0.00,VWS V14.00,2013-03-23 16:45:00,
2013-03-23 12:50:00,48.7,41.1,29.94,West,270,0.0,0.0,75,0.00,,---,0.00,VWS V14.00,2013-03-23 16:50:00,
2013-03-23 12:55:00,49.2,41.6,29.94,West,270,0.0,0.0,75,0.00,,---,0.00,VWS V14.00,2013-03-23 16:55:00,
2013-03-23 13:00:00,50.1,41.8,29.94,West,270,0.0,0.0,73,0.00,,---,0.00,VWS V14.00,2013-03-23 17:00:00,
2013-03-23 13:05:00,50.3,42.0,29.94,North,0,0.0,0.0,73,0.00,,---,0.00,VWS V14.00,2013-03-23 17:05:00,
2013-03-23 13:10:00,50.7,42.0,29.93,North,0,0.0,0.0,72,0.00,,---,0.00,VWS V14.00,2013-03-23 17:10:00,
2013-03-23 13:15:00,51.9,43.5,29.93,North,0,0.0,0.0,73,0.00,,---,0.00,VWS V14.00,2013-03-23 17:15:00,
2013-03-23 13:20:00,52.5,43.8,29.93,North,0,0.0,0.6,72,0.00,,---,0.00,VWS V14.00,2013-03-23 17:20:00,
2013-03-23 13:25:00,53.2,44.0,29.92,North,0,0.0,0.0,71,0.00,,---,0.00,VWS V14.00,2013-03-23 17:25:00,
2013-03-23 13:30:00,53.7,44.5,29.92,North,0,0.0,0.0,71,0.00,,---,0.00,VWS V14.00,2013-03-23 17:30:00,
2013-03-23 13:35:00,54.1,44.5,29.92,North,0,0.0,0.0,70,0.00,,---,0.00,VWS V14.00,2013-03-23 17:35:00,
2013-03-23 13:40:00,54.3,44.7,29.92,North,0,1.3,1.3,70,0.00,,---,0.00,VWS V14.00,2013-03-23 17:40:00,
2013-03-23 13:45:00,55.4,45.8,29.92,South,180,0.0,2.4,70,0.00,,---,0.00,VWS V14.00,2013-03-23 17:45:00,
2013-03-23 13:50:00,56.1,46.5,29.92,SSE,158,0.0,2.4,70,0.00,,---,0.00,VWS V14.00,2013-03-23 17:50:00,
2013-03-23 13:55:00,56.8,46.4,29.92,East,90,0.0,0.0,68,0.00,,---,0.00,VWS V14.00,2013-03-23 17:55:00,
2013-03-23 14:00:00,56.4,45.2,29.92,ENE,68,2.4,2.4,66,0.00,,---,0.00,VWS V14.00,2013-03-23 18:00:00,
2013-03-23 14:05:00,56.3,45.1,29.92,NE,45,0.0,2.4,66,0.00,,---,0.00,VWS V14.00,2013-03-23 18:05:00,
2013-03-23 14:10:00,56.1,45.3,29.92,ENE,68,0.0,2.4,67,0.00,,---,0.00,VWS V14.00,2013-03-23 18:10:00,
2013-03-23 14:15:00,57.3,47.2,29.90,SE,135,0.0,5.5,69,0.00,,---,0.00,VWS V14.00,2013-03-23 18:15:00,
2013-03-23 14:20:00,57.9,47.4,29.90,SSW,202,1.3,5.5,68,0.00,,---,0.00,VWS V14.00,2013-03-23 18:20:00,
2013-03-23 14:25:00,58.8,47.5,29.90,East,90,0.4,0.4,66,0.00,,---,0.00,VWS V14.00,2013-03-23 18:25:00,
2013-03-23 14:30:00,60.0,48.6,29.90,East,90,0.0,3.8,66,0.00,,---,0.00,VWS V14.00,2013-03-23 18:30:00,
2013-03-23 14:35:00,60.4,49.0,29.90,North,0,0.0,3.5,66,0.00,,---,0.00,VWS V14.00,2013-03-23 18:35:00,
2013-03-23 14:40:00,60.9,48.7,29.89,ENE,68,1.1,3.5,64,0.00,,---,0.00,VWS V14.00,2013-03-23 18:40:00,
2013-03-23 14:45:00,61.1,48.8,29.89,ENE,68,3.3,6.0,64,0.00,,---,0.00,VWS V14.00,2013-03-23 18:45:00,
2013-03-23 14:50:00,60.6,48.4,29.89,SSE,158,0.0,6.0,64,0.00,,---,0.00,VWS V14.00,2013-03-23 18:50:00,
2013-03-23 14:55:00,60.0,47.8,29.89,NE,45,6.7,6.7,64,0.00,,---,0.00,VWS V14.00,2013-03-23 18:55:00,
2013-03-23 15:00:00,59.7,47.5,29.88,ENE,68,0.0,0.0,64,0.00,,---,0.00,VWS V14.00,2013-03-23 19:00:00,
2013-03-23 15:05:00,59.1,47.0,29.88,East,90,2.4,4.9,64,0.00,,---,0.00,VWS V14.00,2013-03-23 19:05:00,
2013-03-23 15:10:00,58.8,47.1,29.88,NE,45,0.0,0.0,65,0.00,,---,0.00,VWS V14.00,2013-03-23 19:10:00,
2013-03-23 15:15:00,58.6,47.3,29.87,ENE,68,5.8,5.8,66,0.00,,---,0.00,VWS V14.00,2013-03-23 19:15:00,
2013-03-23 15:20:00,57.7,46.4,29.87,ENE,68,3.3,3.3,66,0.00,,---,0.00,VWS V14.00,2013-03-23 19:20:00,
2013-03-23 15:25:00,57.0,46.6,29.88,SW,225,0.0,3.3,68,0.00,,---,0.00,VWS V14.00,2013-03-23 19:25:00,
2013-03-23 15:31:00,57.2,46.8,29.88,SW,225,4.6,4.6,68,0.00,,---,0.00,VWS V14.00,2013-03-23 19:31:00,
2013-03-23 15:36:00,57.5,47.4,29.87,ESE,112,0.0,4.6,69,0.00,,---,0.00,VWS V14.00,2013-03-23 19:36:00,
2013-03-23 15:41:00,57.5,47.4,29.87,ENE,68,3.3,3.3,69,0.00,,---,0.00,VWS V14.00,2013-03-23 19:41:00,
2013-03-23 15:46:00,57.3,47.2,29.87,ENE,68,0.2,3.3,69,0.00,,---,0.22,VWS V14.00,2013-03-23 19:46:00,
2013-03-23 15:51:00,57.0,46.9,29.86,ENE,68,3.5,3.5,69,0.00,,---,0.00,VWS V14.00,2013-03-23 19:51:00,
2013-03-23 15:56:00,56.8,46.8,29.86,ENE,68,0.0,4.0,69,0.00,,---,0.00,VWS V14.00,2013-03-23 19:56:00,
2013-03-23 16:01:00,57.0,47.3,29.85,NE,45,1.3,1.3,70,0.00,,---,0.00,VWS V14.00,2013-03-23 20:01:00,
2013-03-23 16:06:00,57.3,47.6,29.85,NE,45,4.4,4.4,70,0.00,,---,0.00,VWS V14.00,2013-03-23 20:06:00,
2013-03-23 16:11:00,57.3,47.6,29.85,West,270,0.0,0.0,70,0.00,,---,0.00,VWS V14.00,2013-03-23 20:11:00,
2013-03-23 16:16:00,57.7,48.0,29.85,NE,45,0.0,5.3,70,0.00,,---,0.00,VWS V14.00,2013-03-23 20:16:00,
2013-03-23 16:21:00,57.9,48.2,29.85,ENE,68,3.3,3.3,70,0.00,,---,0.00,VWS V14.00,2013-03-23 20:21:00,
2013-03-23 16:26:00,57.9,48.2,29.85,SSE,158,2.0,3.3,70,0.00,,---,0.00,VWS V14.00,2013-03-23 20:26:00,
2013-03-23 16:31:00,58.1,48.4,29.85,SE,135,0.0,0.0,70,0.00,,---,0.00,VWS V14.00,2013-03-23 20:31:00,
2013-03-23 16:36:00,58.6,48.9,29.85,NNW,338,0.0,0.0,70,0.00,,---,0.00,VWS V14.00,2013-03-23 20:36:00,
2013-03-23 16:41:00,58.8,49.0,29.85,NNW,338,0.0,0.0,70,0.00,,---,0.00,VWS V14.00,2013-03-23 20:41:00,
2013-03-23 16:46:00,58.8,48.7,29.85,NW,315,0.0,0.0,69,0.00,,---,0.00,VWS V14.00,2013-03-23 20:46:00,
2013-03-23 16:51:00,58.8,49.0,29.85,WSW,248,0.0,0.0,70,0.00,,---,0.00,VWS V14.00,2013-03-23 20:51:00,
2013-03-23 16:57:00,58.8,48.7,29.85,WSW,248,0.0,0.0,69,0.00,,---,0.00,VWS V14.00,2013-03-23 20:57:00,
2013-03-23 17:02:00,58.8,48.7,29.84,NE,45,2.0,2.0,69,0.00,,---,0.00,VWS V14.00,2013-03-23 21:02:00,
2013-03-23 17:07:00,58.8,48.7,29.84,ENE,68,4.6,4.6,69,0.00,,---,0.00,VWS V14.00,2013-03-23 21:07:00,
2013-03-23 17:12:00,58.8,49.0,29.84,NNW,338,0.0,0.0,70,0.00,,---,0.00,VWS V14.00,2013-03-23 21:12:00,
2013-03-23 17:17:00,58.8,49.0,29.84,NNW,338,0.0,1.1,70,0.00,,---,0.00,VWS V14.00,2013-03-23 21:17:00,
2013-03-23 17:22:00,58.8,49.0,29.84,West,270,0.0,0.0,70,0.00,,---,0.00,VWS V14.00,2013-03-23 21:22:00,
2013-03-23 17:27:00,59.1,49.0,29.84,NE,45,2.4,2.4,69,0.00,,---,0.00,VWS V14.00,2013-03-23 21:27:00,
2013-03-23 17:32:00,58.8,48.7,29.85,SSE,158,0.0,0.0,69,0.00,,---,0.00,VWS V14.00,2013-03-23 21:32:00,
2013-03-23 17:37:00,58.8,48.7,29.84,WSW,248,3.8,3.8,69,0.00,,---,0.00,VWS V14.00,2013-03-23 21:37:00,
2013-03-23 17:42:00,59.1,49.0,29.84,NNW,338,1.7,1.7,69,0.00,,---,0.00,VWS V14.00,2013-03-23 21:42:00,
2013-03-23 17:47:00,59.3,49.1,29.84,West,270,0.0,1.7,69,0.00,,---,0.00,VWS V14.00,2013-03-23 21:47:00,
2013-03-23 17:52:00,59.5,48.9,29.84,West,270,0.0,0.0,68,0.00,,---,0.00,VWS V14.00,2013-03-23 21:52:00,
2013-03-23 17:57:00,59.3,48.8,29.84,West,270,0.0,0.0,68,0.00,,---,0.00,VWS V14.00,2013-03-23 21:57:00,
2013-03-23 18:02:00,59.1,48.6,29.84,NE,45,3.8,3.8,68,0.00,,---,0.00,VWS V14.00,2013-03-23 22:02:00,
2013-03-23 18:07:00,58.8,48.3,29.84,ENE,68,1.3,3.8,68,0.00,,---,0.00,VWS V14.00,2013-03-23 22:07:00,
2013-03-23 18:12:00,58.8,48.7,29.84,SE,135,0.0,0.0,69,0.00,,---,0.00,VWS V14.00,2013-03-23 22:12:00,
2013-03-23 18:17:00,58.8,48.3,29.84,SE,135,2.6,2.6,68,0.00,,---,0.00,VWS V14.00,2013-03-23 22:17:00,
2013-03-23 18:22:00,58.8,48.3,29.85,SE,135,0.0,0.0,68,0.00,,---,0.00,VWS V14.00,2013-03-23 22:22:00,
2013-03-23 18:27:00,58.2,47.7,29.85,East,90,0.0,0.0,68,0.00,,---,0.00,VWS V14.00,2013-03-23 22:27:00,
2013-03-23 18:32:00,57.9,47.4,29.85,ESE,112,0.0,2.0,68,0.00,,---,0.00,VWS V14.00,2013-03-23 22:32:00,
2013-03-23 18:37:00,57.7,47.2,29.85,South,180,0.0,2.0,68,0.00,,---,0.00,VWS V14.00,2013-03-23 22:37:00,
2013-03-23 18:42:00,57.3,46.8,29.85,South,180,0.0,0.0,68,0.00,,---,0.00,VWS V14.00,2013-03-23 22:42:00,
2013-03-23 18:47:00,57.0,46.6,29.85,SSE,158,0.0,0.0,68,0.00,,---,0.00,VWS V14.00,2013-03-23 22:47:00,
2013-03-23 18:52:00,56.6,46.6,29.85,South,180,0.0,0.0,69,0.00,,---,0.00,VWS V14.00,2013-03-23 22:52:00,
2013-03-23 18:57:00,56.3,46.3,29.85,South,180,0.0,0.0,69,0.00,,---,0.00,VWS V14.00,2013-03-23 22:57:00,
2013-03-23 19:02:00,55.7,45.7,29.85,SW,225,0.0,0.0,69,0.00,,---,0.00,VWS V14.00,2013-03-23 23:02:00,
2013-03-23 19:07:00,55.2,45.6,29.86,ESE,112,0.0,0.0,70,0.00,,---,0.00,VWS V14.00,2013-03-23 23:07:00,
2013-03-23 19:12:00,54.8,45.2,29.86,ENE,68,2.0,2.0,70,0.00,,---,0.00,VWS V14.00,2013-03-23 23:12:00,
2013-03-23 19:17:00,54.3,44.7,29.86,SSW,202,0.0,2.0,70,0.00,,---,0.00,VWS V14.00,2013-03-23 23:17:00,
2013-03-23 19:22:00,53.9,44.7,29.87,SE,135,0.0,0.0,71,0.00,,---,0.00,VWS V14.00,2013-03-23 23:22:00,
2013-03-23 19:27:00,53.4,44.2,29.88,SSE,158,0.0,1.3,71,0.00,,---,0.00,VWS V14.00,2013-03-23 23:27:00,
2013-03-23 19:32:00,53.2,44.0,29.87,SE,135,0.0,0.0,71,0.00,,---,0.00,VWS V14.00,2013-03-23 23:32:00,
2013-03-23 19:37:00,53.2,44.0,29.87,SSE,158,0.0,0.0,71,0.00,,---,0.00,VWS V14.00,2013-03-23 23:37:00,
2013-03-23 19:42:00,52.7,43.6,29.86,SSE,158,0.0,0.0,71,0.00,,---,0.00,VWS V14.00,2013-03-23 23:42:00,
2013-03-23 19:47:00,52.3,43.2,29.86,SSE,158,0.0,0.0,71,0.00,,---,0.00,VWS V14.00,2013-03-23 23:47:00,
2013-03-23 19:52:00,51.9,43.2,29.86,SSE,158,0.0,0.0,72,0.00,,---,0.00,VWS V14.00,2013-03-23 23:52:00,
2013-03-23 19:57:00,51.4,42.7,29.86,SSE,158,0.0,0.0,72,0.00,,---,0.00,VWS V14.00,2013-03-23 23:57:00,
2013-03-23 20:02:00,51.0,42.7,29.86,SSE,158,0.0,0.0,73,0.00,,---,0.00,VWS V14.00,2013-03-24 00:02:00,
2013-03-23 20:08:00,50.7,42.7,29.85,SSE,158,0.0,0.0,74,0.00,,---,0.00,VWS V14.00,2013-03-24 00:08:00,
2013-03-23 20:12:00,50.5,42.5,29.86,SSW,202,0.0,0.0,74,0.00,,---,0.00,VWS V14.00,2013-03-24 00:12:00,
2013-03-23 20:18:00,50.3,42.3,29.86,SSE,158,0.0,0.0,74,0.00,,---,0.00,VWS V14.00,2013-03-24 00:18:00,
2013-03-23 20:23:00,49.8,41.9,29.86,SSE,158,0.0,0.0,74,0.00,,---,0.00,VWS V14.00,2013-03-24 00:23:00,
2013-03-23 20:28:00,49.6,42.0,29.87,SSW,202,0.0,0.0,75,0.00,,---,0.00,VWS V14.00,2013-03-24 00:28:00,
2013-03-23 20:33:00,49.4,42.2,29.87,SSW,202,0.0,0.0,76,0.00,,---,0.00,VWS V14.00,2013-03-24 00:33:00,
2013-03-23 20:38:00,49.1,42.2,29.87,SSW,202,0.0,0.0,77,0.00,,---,0.00,VWS V14.00,2013-03-24 00:38:00,
2013-03-23 20:43:00,49.1,42.2,29.87,SSW,202,0.0,0.0,77,0.00,,---,0.00,VWS V14.00,2013-03-24 00:43:00,
2013-03-23 20:48:00,48.9,42.0,29.87,SSW,202,0.0,0.0,77,0.00,,---,0.00,VWS V14.00,2013-03-24 00:48:00,
2013-03-23 20:53:00,48.7,41.8,29.87,SSW,202,0.0,0.0,77,0.00,,---,0.00,VWS V14.00,2013-03-24 00:53:00,
2013-03-23 20:58:00,48.5,42.3,29.87,SSW,202,0.0,0.0,79,0.00,,---,0.00,VWS V14.00,2013-03-24 00:58:00,
2013-03-23 21:03:00,-14.9,-19.5,29.86,SSW,202,0.0,0.0,79,0.00,,---,0.00,VWS V14.00,2013-03-24 01:03:00,
2013-03-23 21:08:00,48.0,41.8,29.87,SSW,202,0.0,0.0,79,0.00,,---,0.00,VWS V14.00,2013-03-24 01:08:00,
2013-03-23 21:13:00,48.0,42.1,29.87,SSE,158,0.0,0.0,80,0.00,,---,0.00,VWS V14.00,2013-03-24 01:13:00,
2013-03-23 21:18:00,47.6,41.8,29.86,SSE,158,0.0,0.0,80,0.00,,---,0.00,VWS V14.00,2013-03-24 01:18:00,
2013-03-23 21:23:00,47.3,41.8,29.87,SSE,158,0.0,0.0,81,0.00,,---,0.00,VWS V14.00,2013-03-24 01:23:00,
2013-03-23 21:28:00,46.9,41.4,29.87,SSE,158,0.0,0.0,81,0.00,,---,0.00,VWS V14.00,2013-03-24 01:28:00,
2013-03-23 21:33:00,46.5,41.3,29.87,SSE,158,0.0,2.4,82,0.00,,---,0.00,VWS V14.00,2013-03-24 01:33:00,
2013-03-23 21:38:00,46.2,41.0,29.87,SSE,158,0.0,2.4,82,0.00,,---,0.00,VWS V14.00,2013-03-24 01:38:00,
2013-03-23 21:43:00,46.0,40.8,29.87,SSE,158,0.0,0.0,82,0.00,,---,0.00,VWS V14.00,2013-03-24 01:43:00,
2013-03-23 21:48:00,45.6,40.7,29.87,SSE,158,0.0,0.0,83,0.00,,---,0.00,VWS V14.00,2013-03-24 01:48:00,
2013-03-23 21:53:00,45.3,40.5,29.87,SSE,158,0.0,0.0,83,0.00,,---,0.00,VWS V14.00,2013-03-24 01:53:00,
2013-03-23 21:58:00,44.9,40.1,29.87,SSE,158,0.0,0.0,83,0.00,,---,0.00,VWS V14.00,2013-03-24 01:58:00,
2013-03-23 22:03:00,44.7,39.9,29.87,SSE,158,0.0,0.0,83,0.00,,---,0.00,VWS V14.00,2013-03-24 02:03:00,
2013-03-23 22:08:00,44.2,39.7,29.87,SSE,158,0.0,0.0,84,0.00,,---,0.00,VWS V14.00,2013-03-24 02:08:00,
2013-03-23 22:13:00,43.8,39.3,29.87,SSE,158,0.0,0.0,84,0.00,,---,0.00,VWS V14.00,2013-03-24 02:13:00,
2013-03-23 22:18:00,43.7,39.5,29.86,SSE,158,0.0,0.0,85,0.00,,---,0.00,VWS V14.00,2013-03-24 02:18:00,
2013-03-23 22:23:00,43.5,39.3,29.85,SSE,158,0.0,0.0,85,0.00,,---,0.00,VWS V14.00,2013-03-24 02:23:00,
2013-03-23 22:28:00,43.1,38.9,29.87,SSE,158,0.0,0.0,85,0.00,,---,0.00,VWS V14.00,2013-03-24 02:28:00,
2013-03-23 22:33:00,42.9,39.0,29.87,SSE,158,0.0,0.0,86,0.00,,---,0.00,VWS V14.00,2013-03-24 02:33:00,
2013-03-23 22:38:00,42.6,38.7,29.87,SSE,158,0.0,0.0,86,0.00,,---,0.00,VWS V14.00,2013-03-24 02:38:00,
2013-03-23 22:43:00,42.4,38.8,29.87,SSE,158,0.0,0.0,87,0.00,,---,0.00,VWS V14.00,2013-03-24 02:43:00,
2013-03-23 22:48:00,42.2,38.6,29.87,SSE,158,0.0,0.0,87,0.00,,---,0.00,VWS V14.00,2013-03-24 02:48:00,
2013-03-23 22:53:00,41.9,38.3,29.87,SSE,158,0.0,0.0,87,0.00,,---,0.00,VWS V14.00,2013-03-24 02:53:00,
2013-03-23 22:58:00,41.7,38.1,29.86,SSE,158,0.0,0.0,87,0.00,,---,0.00,VWS V14.00,2013-03-24 02:58:00,
2013-03-23 23:03:00,41.7,38.4,29.85,SSE,158,0.0,0.0,88,0.00,,---,0.00,VWS V14.00,2013-03-24 03:03:00,
2013-03-23 23:08:00,41.7,38.4,29.85,SSE,158,0.0,0.0,88,0.00,,---,0.00,VWS V14.00,2013-03-24 03:08:00,
2013-03-23 23:13:00,41.7,38.4,29.85,SSE,158,0.0,0.0,88,0.00,,---,0.00,VWS V14.00,2013-03-24 03:13:00,
2013-03-23 23:18:00,41.5,38.5,29.86,SSE,158,0.0,0.0,89,0.00,,---,0.00,VWS V14.00,2013-03-24 03:18:00,
2013-03-23 23:23:00,41.5,38.8,29.86,SSE,158,0.0,0.0,90,0.00,,---,0.00,VWS V14.00,2013-03-24 03:23:00,
2013-03-23 23:29:00,41.9,39.2,29.87,SSE,158,0.0,0.0,90,0.00,,---,0.00,VWS V14.00,2013-03-24 03:29:00,
2013-03-23 23:34:00,42.4,40.0,29.86,SSE,158,0.0,0.0,91,0.00,,---,0.00,VWS V14.00,2013-03-24 03:34:00,
2013-03-23 23:39:00,42.6,40.4,29.86,South,180,0.0,0.0,92,0.00,,---,0.00,VWS V14.00,2013-03-24 03:39:00,
2013-03-23 23:44:00,42.9,40.7,29.85,South,180,2.4,2.4,92,0.00,,---,0.00,VWS V14.00,2013-03-24 03:44:00,
2013-03-23 23:49:00,43.3,41.1,29.84,SSE,158,3.1,3.1,92,0.00,,---,0.00,VWS V14.00,2013-03-24 03:49:00,
2013-03-23 23:54:00,43.5,41.3,29.85,SSE,158,0.8,0.8,92,0.00,,---,0.00,VWS V14.00,2013-03-24 03:54:00,
2013-03-23 23:59:00,43.5,41.6,29.85,SSW,202,0.0,5.3,93,0.00,,---,0.00,VWS V14.00,2013-03-24 03:59:00,